When you browse on this site, cookies collect data to enhance your experience and personalize the content and advertising you see.
Visit our Privacy Policy to learn more. By continuing to use the site, you agree to this use of cookies and data.
  • In United Kingdom
  • List of Countries
  • For 7 days
  • Water Temperature
  • Satellite Maps
  • Weather Map
  • Weather Widgets
  • user-avatar
    Login

    Hourly Weather Mansa Konko

    Today, 19 July, Friday

    Time Temperature Precipitation Wind Pressure Humidity
    00:00 +27°C° 0 mm 3 mps 760 mmHg 74%
    01:00 +27°C° 0 mm 3 mps 759 mmHg 77%
    02:00 +27°C° 0 mm 3 mps 758 mmHg 80%
    03:00 +26°C° 0 mm 3 mps 759 mmHg 81%
    04:00 +26°C° 0 mm 3 mps 759 mmHg 82%
    05:00 +26°C° 0 mm 3 mps 759 mmHg 82%
    06:00 +27°C° 0 mm 3 mps 759 mmHg 78%
    07:00 +27°C° 0 mm 3 mps 759 mmHg 73%
    08:00 +28°C° 0 mm 3 mps 759 mmHg 69%
    09:00 +30°C° 0 mm 3 mps 759 mmHg 59%
    10:00 +33°C° 0 mm 3 mps 759 mmHg 49%
    11:00 +35°C° 0 mm 3 mps 759 mmHg 39%
    12:00 +36°C° 0 mm 3 mps 758 mmHg 35%
    13:00 +37°C° 0 mm 3 mps 757 mmHg 32%
    14:00 +39°C° 0 mm 2 mps 757 mmHg 28%
    15:00 +38°C° 0 mm 3 mps 756 mmHg 31%
    16:00 +37°C° 0 mm 4 mps 756 mmHg 35%
    17:00 +36°C° 0 mm 5 mps 756 mmHg 38%
    18:00 +34°C° 0 mm 5 mps 756 mmHg 47%
    19:00 +30°C° 0 mm 5 mps 757 mmHg 57%
    20:00 +28°C° 0 mm 5 mps 757 mmHg 67%
    21:00 +27°C° 0 mm 5 mps 758 mmHg 69%
    22:00 +27°C° 0 mm 4 mps 758 mmHg 71%
    23:00 +26°C° 0 mm 3 mps 758 mmHg 73%

    Tomorrow, 20 July, Saturday

    Time Temperature Precipitation Wind Pressure Humidity
    00:00 +26°C° 0 mm 3 mps 758 mmHg 74%
    01:00 +26°C° 0 mm 2 mps 758 mmHg 76%
    02:00 +26°C° 0 mm 2 mps 758 mmHg 77%
    03:00 +25°C° 0 mm 2 mps 758 mmHg 78%
    04:00 +25°C° 0 mm 2 mps 758 mmHg 79%
    05:00 +25°C° 0 mm 1 mps 758 mmHg 80%
    06:00 +26°C° 0 mm 2 mps 758 mmHg 76%
    07:00 +27°C° 0 mm 2 mps 758 mmHg 72%
    08:00 +28°C° 0 mm 2 mps 759 mmHg 68%
    09:00 +30°C° 0 mm 2 mps 759 mmHg 59%
    10:00 +32°C° 0 mm 2 mps 759 mmHg 51%
    11:00 +35°C° 0 mm 2 mps 758 mmHg 43%
    12:00 +36°C° 0 mm 2 mps 758 mmHg 40%
    13:00 +37°C° 0 mm 2 mps 757 mmHg 38%
    14:00 +38°C° 0 mm 3 mps 757 mmHg 35%
    15:00 +38°C° 0 mm 2 mps 757 mmHg 36%
    16:00 +38°C° 0 mm 2 mps 757 mmHg 36%
    17:00 +38°C° 0 mm 2 mps 756 mmHg 37%
    18:00 +36°C° 0.1 mm 3 mps 757 mmHg 45%
    19:00 +33°C° 0.1 mm 3 mps 758 mmHg 53%
    20:00 +30°C° 0.1 mm 4 mps 758 mmHg 61%
    21:00 +29°C° 0 mm 3 mps 758 mmHg 63%
    22:00 +29°C° 0 mm 3 mps 759 mmHg 64%
    23:00 +28°C° 0 mm 3 mps 759 mmHg 66%

    Day after tomorrow, 21 July, Sunday

    Time Temperature Precipitation Wind Pressure Humidity
    00:00 +28°C° 0.4 mm 2 mps 759 mmHg 69%
    01:00 +27°C° 0.4 mm 2 mps 759 mmHg 73%
    02:00 +26°C° 0.4 mm 1 mps 759 mmHg 77%
    03:00 +26°C° 0 mm 1 mps 759 mmHg 78%
    04:00 +26°C° 0 mm 1 mps 759 mmHg 79%
    05:00 +26°C° 0 mm 1 mps 759 mmHg 79%
    06:00 +27°C° 0 mm 1 mps 759 mmHg 75%
    07:00 +28°C° 0 mm 1 mps 760 mmHg 71%
    08:00 +28°C° 0 mm 1 mps 760 mmHg 67%
    09:00 +31°C° 0 mm 1 mps 760 mmHg 60%
    10:00 +33°C° 0 mm 1 mps 760 mmHg 52%
    11:00 +35°C° 0 mm 1 mps 760 mmHg 45%
    12:00 +35°C° 0 mm 1 mps 759 mmHg 44%
    13:00 +35°C° 0 mm 1 mps 759 mmHg 43%
    14:00 +36°C° 0 mm 1 mps 758 mmHg 42%
    15:00 +35°C° 0 mm 1 mps 758 mmHg 43%
    16:00 +36°C° 0 mm 2 mps 757 mmHg 44%
    17:00 +36°C° 0 mm 2 mps 757 mmHg 45%
    18:00 +34°C° 0 mm 3 mps 758 mmHg 49%
    19:00 +33°C° 0 mm 3 mps 758 mmHg 53%
    20:00 +32°C° 0 mm 4 mps 759 mmHg 58%
    21:00 +30°C° 0 mm 3 mps 759 mmHg 61%
    22:00 +29°C° 0 mm 3 mps 759 mmHg 64%
    23:00 +28°C° 0 mm 3 mps 760 mmHg 68%

    22 July, Monday

    Time Temperature Precipitation Wind Pressure Humidity
    00:00 +28°C° 0 mm 3 mps 759 mmHg 70%
    01:00 +28°C° 0 mm 3 mps 759 mmHg 72%
    02:00 +27°C° 0 mm 3 mps 758 mmHg 75%
    03:00 +27°C° 0 mm 2 mps 758 mmHg 76%
    04:00 +27°C° 0 mm 2 mps 759 mmHg 78%
    05:00 +26°C° 0 mm 1 mps 759 mmHg 80%
    06:00 +27°C° 0 mm 2 mps 759 mmHg 76%
    07:00 +28°C° 0 mm 2 mps 760 mmHg 72%
    08:00 +29°C° 0 mm 3 mps 760 mmHg 68%
    09:00 +31°C° 0 mm 3 mps 760 mmHg 61%
    10:00 +34°C° 0 mm 3 mps 760 mmHg 54%
    11:00 +36°C° 0 mm 3 mps 759 mmHg 47%
    12:00 +37°C° 0 mm 3 mps 759 mmHg 43%
    13:00 +38°C° 0 mm 3 mps 758 mmHg 40%
    14:00 +39°C° 0 mm 3 mps 757 mmHg 37%
    15:00 +38°C° 0 mm 3 mps 757 mmHg 40%
    16:00 +37°C° 0 mm 4 mps 756 mmHg 43%
    17:00 +36°C° 0 mm 5 mps 756 mmHg 46%
    18:00 +34°C° 0.2 mm 5 mps 756 mmHg 52%
    19:00 +32°C° 0.2 mm 5 mps 757 mmHg 59%
    20:00 +29°C° 0.2 mm 5 mps 757 mmHg 66%
    21:00 +29°C° 0.1 mm 4 mps 758 mmHg 68%
    22:00 +28°C° 0.1 mm 4 mps 758 mmHg 71%
    23:00 +28°C° 0.1 mm 3 mps 758 mmHg 73%

    23 July, Tuesday

    Time Temperature Precipitation Wind Pressure Humidity
    00:00 +28°C° 0 mm 3 mps 758 mmHg 74%
    01:00 +27°C° 0 mm 3 mps 757 mmHg 76%
    02:00 +27°C° 0 mm 3 mps 757 mmHg 77%
    03:00 +27°C° 0 mm 3 mps 757 mmHg 79%
    04:00 +27°C° 0 mm 2 mps 757 mmHg 80%
    05:00 +27°C° 0 mm 2 mps 757 mmHg 81%
    06:00 +27°C° 0 mm 2 mps 757 mmHg 77%
    07:00 +28°C° 0 mm 2 mps 758 mmHg 74%
    08:00 +29°C° 0 mm 3 mps 758 mmHg 70%
    09:00 +31°C° 0 mm 3 mps 758 mmHg 62%
    10:00 +34°C° 0 mm 2 mps 758 mmHg 53%
    11:00 +36°C° 0 mm 2 mps 758 mmHg 45%
    12:00 +37°C° 0 mm 2 mps 757 mmHg 42%
    13:00 +38°C° 0 mm 2 mps 756 mmHg 39%
    14:00 +39°C° 0 mm 2 mps 755 mmHg 36%
    15:00 +38°C° 0 mm 3 mps 755 mmHg 38%
    16:00 +38°C° 0 mm 3 mps 755 mmHg 40%
    17:00 +37°C° 0 mm 4 mps 754 mmHg 42%
    18:00 +35°C° 0.2 mm 4 mps 755 mmHg 49%
    19:00 +33°C° 0.2 mm 4 mps 756 mmHg 56%
    20:00 +30°C° 0.2 mm 4 mps 757 mmHg 63%
    21:00 +29°C° 0.1 mm 4 mps 757 mmHg 66%
    22:00 +29°C° 0.1 mm 4 mps 758 mmHg 70%
    23:00 +28°C° 0.1 mm 3 mps 758 mmHg 73%

    24 July, Wednesday

    Time Temperature Precipitation Wind Pressure Humidity
    00:00 +28°C° 0.2 mm 3 mps 758 mmHg 75%
    01:00 +27°C° 0.2 mm 3 mps 758 mmHg 77%
    02:00 +27°C° 0.2 mm 3 mps 757 mmHg 79%
    03:00 +27°C° 0.1 mm 2 mps 757 mmHg 81%
    04:00 +27°C° 0.1 mm 2 mps 757 mmHg 83%
    05:00 +26°C° 0.1 mm 2 mps 757 mmHg 84%
    06:00 +27°C° 0.2 mm 2 mps 758 mmHg 80%
    07:00 +28°C° 0.2 mm 2 mps 758 mmHg 76%
    08:00 +29°C° 0.2 mm 2 mps 759 mmHg 72%
    09:00 +30°C° 0.1 mm 2 mps 759 mmHg 65%
    10:00 +32°C° 0.1 mm 2 mps 759 mmHg 58%
    11:00 +35°C° 0.1 mm 2 mps 759 mmHg 51%
    12:00 +34°C° 1.3 mm 3 mps 758 mmHg 54%
    13:00 +34°C° 1.3 mm 3 mps 758 mmHg 57%
    14:00 +33°C° 1.3 mm 3 mps 757 mmHg 60%
    15:00 +33°C° 0.1 mm 3 mps 757 mmHg 61%
    16:00 +32°C° 0.1 mm 2 mps 757 mmHg 61%
    17:00 +32°C° 0.1 mm 1 mps 756 mmHg 62%
    18:00 +31°C° 0.2 mm 2 mps 757 mmHg 66%
    19:00 +30°C° 0.2 mm 2 mps 757 mmHg 69%
    20:00 +29°C° 0.2 mm 3 mps 758 mmHg 73%
    21:00 +29°C° 0.4 mm 2 mps 758 mmHg 76%
    22:00 +28°C° 0.4 mm 2 mps 758 mmHg 79%
    23:00 +27°C° 0.4 mm 2 mps 758 mmHg 82%
    Show more